Simultaneous Nadir Overpasses (SNOs) Predictions

Prediction of SNOs between NOAA-20 and AQUA Satellite Orbit:

Table of predicted SNOs for the next 14.0 days since TLE Epoch: 2/10/2024
Index Date (NOAA-20) Time (NOAA-20) Lat,Lon (NOAA-20) SZA (NOAA-20 ) Date (AQUA) Time (AQUA) Lat,Lon (AQUA) SZA (AQUA ) Distance(km) Time Diff (sec)
1 02/11/2024 20:35:45 81.09, 149.59 103.03 02/11/2024 20:35:44 81.08, 149.49 103.05 1.89 1
2 02/14/2024 09:29:42 81.08, -44.26 102.25 02/14/2024 09:30:04 81.08, -44.11 102.21 2.49 22
3 02/14/2024 10:20:25 -81.10, 123.82 77.88 02/14/2024 10:19:26 -81.11, 123.99 77.87 3.05 59
4 02/16/2024 22:23:36 81.09, 122.58 101.34 02/16/2024 22:24:21 81.09, 122.49 101.32 1.60 45
5 02/16/2024 23:14:19 -81.11, -69.32 78.80 02/16/2024 23:13:43 -81.12, -69.38 78.77 1.05 36
6 02/19/2024 11:17:32 81.08, -71.02 100.47 02/19/2024 11:18:38 81.09, -71.07 100.43 0.93 66
7 02/19/2024 12:08:16 -81.10, 96.72 79.62 02/19/2024 12:08:01 -81.09, 96.71 79.61 0.50 15



Historial Predications of SNOs between NOAA-20 and AQUA
